BREEZE-KM R/B, 43438

Orbit data source: Space-Track

BREEZE-KM R/B, 43438 is space debris in SSO originally from a launch on Wed, 25 Apr 2018 UTC launched from the Plesetsk Missile And Space Complex (PKMTR). Debris objects in space refer to the collection of defunct objects orbiting the Earth. Examples of debris include non-operational satellites, rocket bodies, and fragments generated from explosions, collisions, or faulty payload assembly.

Loading next visibility...
Identifier
43438, 2018-039B
Orbit
SSO
Country
Flag of CISCIS
Related business
Manufacturer
Khrunichev
Mission
Spacecraft
Bus & Motor
BRIZ, S5.92
Mass
2,370 kg wet, 2,370 kg dry
Launch date (UTC)
2018-04-25 (8 years ago)
Launch vehicle
Unknown
Launch site
Plesetsk Missile And Space Complex (PKMTR)
Object type
Payload
Rocket body
Debris
Shape & HBR
Hex Cyl + 1 Rod, 2.0 m
Radar Cross Section
10.190 m², Large (>1 m²)

Expand to show TLE details & history
Last TLE update: 2 days ago

TLE from 2 days ago
0 BREEZE-KM R/B
1 43438U 18039B   26171.39110170  .00011335  00000-0  27936-3 0  9995
2 43438  98.6891 302.0459 0146775 183.3212 176.7065 15.30338718447958
Epoch: 2026-06-20T09:23Z
TLE epoch observation values (Epoch: 2026-06-20T09:23:11.186Z)
Latitude
-0.0001°
Longitude
-107.35709°
Altitude
578.311 km
Speed
7.516 km/s
True Right ascension
20h 08m 11s
True Declination
0° 00' 00"
Sunlit
Object was in full shadow at epoch
Visualization orbit readout
Latitude
Unknown
Longitude
Unknown
Altitude
Unknown
Speed
Unknown
Apparent Right ascension
Unknown
Apparent Declination
Unknown
Sunlit
N/A
Visualization observer readout
Local Sidereal Time
21:33:08
Azimuth
Unknown
Elevation
Unknown
Doppler factor
Unknown
Orbital elements
Apogee altitude
572.352 km
Perigee altitude
371.272 km
Semi-major axis
6,849.949 km
Eccentricity
0.01468
Inclination
98.6891°
RAAN
302.0459°
Arg. of periapsis
183.3212°
True anomaly
176.80139°
Mean anomaly
176.7065°
Eccentric anomaly
176.75412°
Mean motion
3.82835 °/min
Orbital period
94.04 mins
BSTAR
0.00027936
Loading maneuver chart data...
Computing Atmospheric mass density...
Loading historical data...
Loading historical data...
Loading historical data...
Loading historical data...
Loading historical data...
Loading historical data...
Loading historical data...
Other satellites on launch #39 in the year 2018 (2018-04-25 UTC)

Documentation

Showing up to 5 results
|